Location: Heidgraben
(53.7081°N, 9.6576°E)
Time: 00:25:24
(UTC+00:00)

Cosmos 1408 - Pass Details

Date: 05 July 2020
Orbit: 470 x 494 km, 82.6° (Epoch: 03 August)

Event Time Altitude Azimuth Distance (km) Brightness Sun altitude
Exits shadow 23:03:15 11° 226° (SW) 1,551 4.8 -13.5°
Maximum altitude 23:06:15 31° 289° (WNW) 847 4.0 -13.5°
Drops below altitude 10° 23:09:30 10° 354° (N) 1,648 6.7 -13.5°
Sets 23:11:46 0° 5° (N) 2,531 8.1 -13.6°
